Dewpoint
55 55 55 54 55 55 54 53 52 52 52 52 52 52 52 52 51 48 43 44 40 37 36 38 39 40 40 40 37 38 38 40 37 38 35 34 36 37 40 37 39 38 38 33 34 34 35 48 44 43 49 50 51 51
55 55 54 54 54 55 53 52 52 52 52 52 51 51 51 51 51 50 41 44 45 42 40 43 42 43 43 42 41 42 41 41 40 37 38 37 35 37 40 35 43 38 46 44 44 44 47 47 46 47 48 50 51 51
54 54 54 54 54 54 52 52 52 52 52 51 51 51 51 51 51 50 44 46 45 43 40 41 40 44 44 43 42 40 42 43 44 42 39 37 39 36 34 33 38 40 44 43 43 41 42 44 45 47 50 51 51 51
54 54 54 54 54 53 52 52 52 52 51 51 50 51 51 51 51 50 45 48 46 45 40 36 40 42 44 43 44 42 41 43 42 42 40 38 36 38 36 37 37 37 40 41 40 40 41 43 47 48 47 48 50 51
53 53 53 53 54 52 52 52 52 51 51 50 50 50 50 50 51 49 48 50 48 44 39 38 41 41 41 43 43 44 43 43 42 40 40 39 40 39 39 38 37 39 40 44 42 43 44 47 46 48 48 48 50 51
53 53 53 53 53 52 52 52 52 51 50 50 50 50 50 50 51 45 45 48 50 48 45 38 40 41 41 43 44 45 44 44 43 42 41 41 42 43 38 37 40 41 42 44 48 47 44 46 47 45 49 50 51 52
53 53 53 54 52 52 52 52 51 50 50 49 50 51 51 52 49 44 41 47 49 49 44 39 38 40 42 43 41 44 45 44 44 43 42 41 41 44 41 37 44 51 50 50 49 48 47 46 46 47 51 53 53 52
53 53 53 53 52 51 51 51 50 50 49 50 51 51 52 51 50 48 50 50 49 46 43 40 39 40 42 39 38 44 42 44 44 43 43 44 46 50 44 48 48 50 52 52 49 51 50 49 49 52 53 53 53 52
52 52 53 52 51 51 51 50 49 50 50 50 49 50 50 49 47 50 52 52 50 45 43 41 37 36 42 40 41 42 45 41 46 44 46 49 49 45 46 49 50 52 53 53 54 53 51 50 52 53 52 51 51 52
52 53 52 52 51 51 50 49 49 50 50 48 46 46 46 46 49 52 50 49 46 46 46 41 42 38 41 39 40 41 42 42 40 48 50 48 46 49 51 52 52 52 53 54 54 53 53 52 51 52 52 52 53 52
52 53 52 51 51 51 50 50 49 49 48 42 41 41 44 47 46 47 46 44 44 42 43 43 42 40 42 40 40 45 42 43 41 48 46 44 44 48 52 52 52 53 54 54 54 55 54 54 54 53 53 54 56 56
52 52 51 50 51 50 50 50 50 47 44 45 44 47 46 44 44 42 41 43 43 41 45 41 40 41 43 48 45 49 43 44 40 43 44 40 47 49 50 51 52 53 54 54 54 54 56 55 55 54 55 55 54 55
52 51 50 50 50 48 49 50 49 50 49 47 45 43 42 43 39 38 35 38 40 41 42 40 38 40 43 45 42 43 41 41 42 42 40 44 48 49 52 52 53 54 53 53 53 56 57 57 57 56 56 57 56 56
52 50 50 50 49 49 49 50 50 49 45 42 40 37 38 37 37 38 39 40 41 41 39 38 37 39 42 42 46 41 44 44 38 38 39 46 47 48 51 52 52 50 52 53 54 56 57 56 55 56 57 57 56 57
50 50 49 48 47 49 50 49 50 47 43 40 40 36 37 38 39 41 40 40 42 42 39 36 36 41 42 43 43 42 39 38 38 40 44 48 48 49 51 52 51 52 53 54 56 55 56 57 56 55 57 58 58 59
49 47 45 48 49 49 49 49 48 46 43 41 40 38 39 38 36 38 39 39 41 40 40 39 38 39 39 40 39 39 39 37 41 46 46 47 51 52 53 53 53 53 55 57 56 56 56 56 57 58 58 58 58 58
46 43 47 48 48 48 49 47 47 44 40 39 37 38 38 38 38 39 40 40 42 39 35 34 35 37 41 39 39 42 40 43 46 45 46 51 52 54 54 54 55 55 55 55 57 57 58 58 58 59 59 59 59 59
44 45 48 48 47 46 46 46 43 41 39 39 37 38 39 40 39 38 38 41 41 40 39 34 36 34 35 34 41 44 46 43 44 45 48 53 55 56 55 55 55 56 56 56 56 58 56 57 58 59 58 59 59 61
44 45 46 47 46 43 42 43 44 39 38 38 39 39 40 40 41 41 40 41 42 43 41 37 35 35 40 43 39 42 42 42 43 45 49 56 56 55 56 55 55 55 58 57 56 54 56 57 56 59 62 61 60 59
48 48 48 48 46 41 39 40 47 43 39 40 41 39 39 38 38 39 39 38 39 40 38 36 34 34 35 39 41 43 43 45 46 46 50 55 52 54 55 55 52 54 55 53 51 50 52 57 58 57 56 57 59 60
44 46 48 46 42 41 39 38 39 40 39 39 39 39 37 38 39 38 38 40 38 37 35 36 37 41 43 45 46 48 48 48 52 51 50 50 52 53 53 51 51 50 50 49 45 47 48 50 59 63 60 59 60 58
44 46 49 45 43 43 42 41 38 39 40 38 39 39 37 37 37 39 41 39 39 38 40 42 42 46 51 49 48 50 50 51 51 56 53 52 55 58 55 49 50 50 47 46 46 46 46 48 51 55 59 58 54 55
44 44 45 45 42 42 39 44 42 41 39 38 39 36 36 37 40 45 45 47 50 52 52 52 53 53 52 48 50 51 51 51 50 59 54 55 56 49 48 50 52 46 44 44 44 45 46 44 46 48 51 53 52 49
44 42 42 41 41 38 41 39 41 40 39 37 36 32 33 37 41 42 42 48 50 52 53 52 52 48 48 49 47 48 50 51 50 56 56 55 57 47 45 42 41 42 46 46 40 41 42 45 45 47 49 49 51 55
41 38 39 38 40 40 39 38 37 36 35 36 33 32 34 41 42 41 43 48 50 50 51 50 50 46 42 41 44 46 49 51 51 55 56 52 49 46 43 46 46 44 41 41 40 39 40 43 45 46 48 48 48 49
35 37 39 37 36 36 35 34 35 37 37 34 32 35 37 35 34 38 43 48 49 50 52 50 46 44 42 43 41 43 48 46 51 55 55 55 55 54 53 49 47 49 45 41 41 41 41 42 43 44 44 44 42 44
35 36 39 39 38 38 37 37 37 35 34 32 31 32 34 34 36 44 49 51 50 51 50 48 45 42 42 44 44 46 48 46 55 55 53 51 50 51 48 43 41 43 44 42 43 43 43 43 43 43 43 44 44 44
37 37 35 36 36 36 35 34 33 32 32 34 32 30 31 34 42 46 49 52 48 43 45 44 43 43 42 42 44 48 43 53 50 48 43 43 43 43 45 44 46 43 46 47 46 45 44 45 44 44 43 43 42 42
38 37 38 36 35 34 34 34 33 32 34 34 32 30 32 37 42 42 46 45 41 40 39 39 39 40 40 42 53 43 41 44 44 46 41 40 40 41 45 45 46 46 46 45 41 44 47 45 44 43 43 41 41 41
36 37 35 34 33 33 34 34 34 34 35 35 35 35 36 36 37 38 39 42 40 39 39 39 39 40 41 42 51 40 40 41 41 41 40 40 41 44 46 46 46 46 46 45 44 44 42 43 43 43 41 41 41 40
37 35 34 34 33 34 39 39 39 39 38 37 38 38 37 39 41 43 43 44 44 44 44 44 44 44 44 46 47 39 39 43 46 46 44 44 45 46 46 46 45 44 44 43 42 41 40 40 40 41 42 43 42 40
35 35 33 33 36 44 45 44 44 44 45 44 44 45 45 45 44 47 52 52 50 48 47 46 43 45 48 44 41 41 40 42 43 44 45 44 45 45 44 43 41 41 40 39 39 39 41 41 41 41 40 41 41 39
36 35 36 35 40 41 44 44 44 44 45 44 45 46 46 46 46 53 56 57 45 40 38 39 39 39 41 40 41 41 40 44 43 38 39 39 39 40 40 40 40 38 37 36 37 39 40 41 40 40 38 37 37 36
Lifted_Index
9 8 7 8 7 8 8 10 10 11 11 12 13 13 14 15 15 15 14 14 14 12 12 12 11 11 10 9 9 8 7 6 5 4 3 3 2 1 0 0 -0 -1 -1 -2 -2 -2 -1 -1 -2 -2 -3 -3 -3 -3
8 8 7 7 8 8 9 10 10 11 12 12 13 14 14 15 15 15 14 14 13 12 12 11 11 10 10 9 9 7 6 5 5 4 3 3 2 1 1 0 -0 -1 -1 -2 -2 -2 -2 -1 -1 -1 -2 -3 -3 -3
7 7 7 7 8 8 9 10 11 11 12 13 13 14 15 15 15 15 14 13 13 12 11 10 10 10 10 9 8 7 6 5 5 4 4 3 2 2 1 1 0 -0 -1 -1 -1 -1 -1 -1 -1 -1 -1 -2 -2 -2
6 6 7 7 8 8 9 11 11 12 13 13 14 14 15 15 15 15 14 13 12 11 10 9 9 9 8 8 8 7 6 5 4 4 3 3 2 2 1 1 0 -0 -0 -1 -1 -1 -1 -1 -1 -1 -1 -1 -1 -2
7 7 7 8 8 9 10 11 12 13 13 14 14 14 14 14 14 13 13 12 12 11 10 9 8 8 7 7 6 6 5 4 4 3 3 2 2 2 1 1 -0 -0 -0 -1 -1 -1 -1 -1 -1 -0 0 0 -1 -1
8 8 8 9 9 10 11 12 12 13 14 14 14 14 14 14 13 12 11 11 11 11 10 8 7 7 6 6 5 4 4 4 3 3 2 2 1 1 1 0 -0 -1 -1 -1 -1 -1 -1 -1 -1 0 0 -0 -1 -1
8 8 9 10 10 11 11 12 13 14 14 14 14 14 14 13 12 11 10 11 11 10 9 7 6 6 5 5 4 3 3 3 3 2 1 1 1 1 1 0 0 -1 -1 -2 -2 -2 -1 -1 -1 0 0 -0 -1 -2
8 9 9 10 11 11 12 12 13 14 14 14 14 13 13 11 10 10 10 10 10 10 8 6 5 5 4 4 3 3 2 2 2 1 1 1 1 1 1 1 1 0 -1 -1 -2 -2 -2 -1 -1 -0 -0 -1 -1 -2
9 9 10 11 12 12 12 13 13 14 14 13 13 12 11 10 9 9 10 10 9 8 7 6 4 4 3 3 3 2 2 1 1 0 0 0 1 1 2 2 2 1 0 -1 -2 -2 -2 -1 -1 -1 -1 -1 -2 -2
9 10 11 12 12 12 12 13 14 14 14 13 12 10 9 9 9 9 9 8 8 7 6 5 4 4 3 3 2 2 1 1 0 -0 -0 0 1 2 2 2 2 2 1 0 -1 -1 -1 -1 -1 -2 -2 -2 -2 -2
10 10 11 12 12 12 13 13 14 14 13 13 11 10 10 9 9 8 7 6 5 5 4 4 3 3 3 2 2 2 1 1 0 -0 0 1 1 2 2 2 2 2 2 1 0 -0 -1 -1 -2 -2 -2 -2 -2 -2
10 11 11 11 12 13 13 14 14 13 13 12 11 10 10 9 7 6 5 5 4 3 3 3 3 3 2 2 2 1 1 1 1 0 1 1 2 2 2 2 2 2 1 1 1 0 -0 -1 -2 -2 -2 -2 -2 -2
10 11 11 11 12 13 13 13 13 13 13 11 10 9 8 7 6 5 4 4 3 3 3 3 3 3 2 2 1 1 1 1 1 1 1 2 2 2 2 2 1 1 1 0 0 0 -0 -1 -1 -2 -2 -2 -2 -2
10 10 11 11 12 12 13 13 13 13 11 10 8 7 7 6 5 5 4 3 3 3 3 3 3 3 2 2 1 1 1 1 1 1 2 2 2 2 2 2 1 1 0 -0 -0 -0 -0 -1 -1 -1 -2 -2 -2 -3
10 10 10 11 12 12 12 12 12 11 10 9 7 6 6 5 5 4 3 3 3 3 3 3 3 2 2 2 2 1 1 1 2 2 2 2 2 2 2 1 1 1 -0 -1 -1 -0 -0 -1 -1 -1 -2 -2 -2 -3
9 9 10 11 11 11 11 11 11 10 9 8 7 6 5 5 4 4 3 3 3 3 3 3 3 2 2 2 2 2 2 2 2 2 2 2 2 1 1 1 0 0 -0 -0 -1 -1 -0 -0 -0 -1 -2 -2 -2 -2
9 9 10 11 11 11 10 10 9 8 7 6 6 5 5 5 4 4 3 3 3 3 4 4 3 2 2 2 2 2 2 2 2 2 2 1 1 0 0 -0 -0 -1 -0 -0 -1 -1 -0 -0 -0 -1 -1 -2 -2 -2
8 9 10 11 10 10 9 8 7 7 6 5 5 5 4 4 4 4 4 4 4 4 4 4 4 3 2 2 2 2 2 2 2 2 1 1 -0 -1 -1 -1 -1 -1 -1 -0 -1 -1 -1 -1 -0 -1 -1 -1 -1 -1
9 10 10 11 10 9 8 7 7 6 5 4 4 4 4 4 4 4 4 4 4 3 3 4 4 3 2 2 2 2 2 2 2 2 1 -0 -1 -1 -1 -1 -1 -1 -1 -1 -1 -1 -1 -1 -1 -1 -1 -1 -1 -0
9 10 10 10 10 9 7 7 6 5 4 4 3 3 3 3 4 4 4 4 3 3 3 3 3 3 2 2 2 2 2 2 2 1 0 -0 -1 -1 -2 -1 -1 -1 -1 -1 -0 -0 -1 -1 -1 -1 -1 -1 -0 -0
9 9 9 9 9 8 7 6 6 5 4 3 3 3 3 3 3 3 3 3 3 3 3 3 2 2 2 2 2 2 2 2 1 1 -0 -1 -1 -1 -1 -1 -1 -1 -1 -0 0 0 0 -0 -1 -2 -1 -1 -0 0
9 8 8 7 7 6 6 5 5 4 4 3 3 3 3 3 3 2 2 2 2 2 2 2 1 1 1 1 2 2 2 1 1 0 -0 -1 -1 -1 -1 -0 -1 -1 0 1 1 1 1 0 -0 -1 -1 -1 -0 1
9 8 6 6 5 5 5 5 4 4 3 3 3 3 3 3 2 2 1 1 1 2 2 1 1 1 1 2 2 1 1 1 0 -0 -0 -1 -1 -0 0 1 1 1 1 2 2 2 2 2 1 -0 -1 -0 -0 0
7 6 5 5 4 4 4 4 4 3 3 3 4 4 3 3 2 1 1 1 2 2 2 2 2 2 2 2 2 1 1 1 0 -0 -1 -1 -0 1 1 2 2 2 2 2 2 2 2 2 2 1 1 0 0 0
5 5 4 4 4 4 4 4 3 3 3 3 4 4 3 3 2 2 2 2 2 2 2 2 3 3 3 3 2 2 1 1 0 -1 -1 -0 1 1 2 2 3 3 3 3 3 3 3 3 2 2 2 2 1 1
3 3 4 4 4 4 4 3 3 3 3 4 4 4 3 3 2 2 2 2 3 3 3 2 2 3 3 3 3 2 2 1 0 -0 -0 1 1 1 1 2 2 3 3 3 3 3 3 3 2 2 2 2 3 2
3 4 4 5 5 4 4 4 4 4 4 4 4 4 4 3 2 2 3 3 3 3 3 3 3 3 3 3 3 3 2 1 1 0 1 1 1 1 1 2 3 3 3 3 3 2 2 3 3 3 3 3 3 4
4 4 4 5 5 5 5 5 5 5 4 4 4 4 4 3 2 2 3 4 4 4 4 3 3 4 4 4 4 3 2 1 1 1 1 2 2 2 2 2 3 3 3 3 2 2 3 3 3 3 4 4 5 5
5 5 5 5 5 5 5 5 5 5 4 4 4 4 4 3 3 3 4 4 4 4 4 4 4 4 4 4 3 3 2 2 1 1 2 2 2 2 2 2 2 3 3 3 3 3 3 4 4 4 5 5 5 5
5 5 5 5 5 5 5 5 5 5 5 5 4 4 4 4 4 4 4 4 4 4 4 4 4 4 3 3 2 3 3 3 3 2 2 2 3 2 2 2 2 2 3 3 4 4 4 5 5 5 5 5 5 5
5 5 4 4 4 4 4 5 5 5 4 4 4 4 4 4 4 4 3 3 3 3 3 3 3 3 2 2 2 3 3 4 4 3 3 3 3 3 3 3 3 3 4 4 4 5 5 5 5 5 5 5 5 5
4 4 4 3 3 3 3 3 3 3 3 3 3 3 3 3 2 2 1 1 2 2 3 3 3 2 2 3 3 4 4 5 5 5 4 4 4 4 4 4 4 5 5 5 5 5 5 5 5 5 5 5 5 5
4 4 4 3 3 2 2 2 2 2 2 2 2 2 2 2 1 1 0 1 2 3 3 3 3 3 3 4 5 5 5 6 6 6 6 5 5 5 5 5 5 6 6 6 6 5 5 5 5 5 5 5 5 6